Hobbs, NM

2:50 AM MST on February 25, 2017 (GMT -0700)
Lea County Regional

Weather History for KHOB - February, 2013

Change the Weather History Date:

Friday, February 8, 2013

  Actual Average Record
Temperature  
Mean Temperature 46 °F -  
Max Temperature 59 °F 57 °F 80 °F (1951)
Min Temperature 33 °F 31 °F 17 °F (2011)
Degree Days  
Heating Degree Days 19    
Moisture  
Dew Point 22 °F    
Average Humidity 42    
Maximum Humidity 65    
Minimum Humidity 25    
Precipitation  
Precipitation 0.00 in - - ()
Sea Level Pressure  
Sea Level Pressure 30.09 in    
Wind  
Wind Speed 9 mph (East)    
Max Wind Speed 23 mph    
Max Gust Speed 26 mph    
Visibility 10 miles    
Events      
Averages and records for this station are not official NWS values.
T = Trace of Precipitation, MM = Missing Value Source: NWS Daily Summary

Daily Weather History Graph

Daily Weather History Graph

Search for Another Location

Airport or City:

Trip Planner

Search our weather history database for the weather conditions in past years. The results will help you decide how hot, cold, wet, or windy it might be!

Date:

Astronomy

Feb. 08, 2013 Rise Set
Actual Time 6:42 AM MST 5:32 PM MST
Civil Twilight 6:16 AM MST 5:58 PM MST
Nautical Twilight 5:47 AM MST 6:27 PM MST
Astronomical Twilight 5:18 AM MST 6:55 PM MST
Moon 5:09 AM MST (2/8) 4:09 PM MST (2/8)
Length of Visible Light 11h 41m
Length of Day
10h 50m
Waning Crescent, 3% of the Moon is Illuminated
Feb 8
Waning Crescent
Feb 10
New
Feb 17
First Quarter
Feb 25
Full
Mar 4
Last Quarter

Hourly Weather History & Observations

Time (MST) Temp. Windchill Dew Point Humidity Pressure Visibility Wind Dir Wind Speed Gust Speed Precip Events Conditions
12:15 AM 41.0 °F 35.2 °F 21.2 °F 45% 30.22 in 10.0 mi ENE 9.2 mph - N/A   Clear
12:35 AM 41.0 °F 37.1 °F 19.4 °F 42% 30.21 in 10.0 mi NE 5.8 mph - N/A   Clear
12:55 AM 41.0 °F 35.2 °F 19.4 °F 42% 30.22 in 10.0 mi ENE 9.2 mph - N/A   Clear
1:15 AM 39.2 °F 34.2 °F 19.4 °F 45% 30.22 in 10.0 mi ENE 6.9 mph - N/A   Clear
1:35 AM 37.4 °F 33.8 °F 19.4 °F 48% 30.22 in 10.0 mi ENE 4.6 mph - N/A   Clear
1:55 AM 37.4 °F 31.4 °F 19.4 °F 48% 30.22 in 10.0 mi ENE 8.1 mph - N/A   Clear
2:15 AM 37.4 °F - 19.4 °F 48% 30.22 in 10.0 mi Calm Calm - N/A   Clear
2:35 AM 35.6 °F - 19.4 °F 52% 30.21 in 10.0 mi Calm Calm - N/A   Clear
2:55 AM 35.6 °F 32.8 °F 19.4 °F 52% 30.21 in 10.0 mi ENE 3.5 mph - N/A   Clear
3:15 AM 37.4 °F - 19.4 °F 48% 30.21 in 10.0 mi Calm Calm - N/A   Clear
3:35 AM 35.6 °F - 19.4 °F 52% 30.21 in 10.0 mi Calm Calm - N/A   Clear
3:55 AM 35.6 °F 29.9 °F 19.4 °F 52% 30.20 in 10.0 mi NE 6.9 mph - N/A   Clear
5:50 AM 33.8 °F 28.6 °F 23.0 °F 65% 30.22 in 10.0 mi SSE 5.8 mph - N/A   Clear
7:50 AM 35.6 °F - 24.8 °F 65% 30.25 in 10.0 mi Calm Calm - N/A   Clear
8:50 AM 44.6 °F 38.1 °F 26.6 °F 49% 30.25 in 10.0 mi ESE 13.8 mph - N/A   Clear
9:50 AM 46.4 °F 40.7 °F 24.8 °F 43% 30.23 in 10.0 mi ESE 12.7 mph - N/A   Clear
10:50 AM 48.2 °F - 24.8 °F 40% 30.21 in 10.0 mi ESE 11.5 mph 19.6 mph N/A   Clear
12:50 PM 55.4 °F - 23.0 °F 29% 30.13 in 10.0 mi ESE 17.3 mph 24.2 mph N/A   Clear
1:50 PM 57.2 °F - 23.0 °F 27% 30.07 in 10.0 mi ESE 18.4 mph 26.5 mph N/A   Clear
2:50 PM 59.0 °F - 23.0 °F 25% 30.04 in 10.0 mi ESE 15.0 mph 23.0 mph N/A   Clear
3:50 PM 59.0 °F - 23.0 °F 25% 30.02 in 10.0 mi ESE 23.0 mph 26.5 mph N/A   Clear
4:50 PM 55.4 °F - 23.0 °F 29% 30.01 in 10.0 mi ESE 21.9 mph 26.5 mph N/A   Clear
5:15 PM 55.4 °F - 23.0 °F 29% 30.01 in 10.0 mi ESE 15.0 mph 21.9 mph N/A   Clear
5:35 PM 53.6 °F - 23.0 °F 30% 30.02 in 10.0 mi ESE 12.7 mph 19.6 mph N/A   Clear
5:45 PM 53.6 °F - 23.0 °F 30% 30.02 in 10.0 mi East 10.4 mph - N/A   Clear
5:55 PM 51.8 °F - 23.0 °F 33% 30.02 in 10.0 mi ESE 10.4 mph - N/A   Clear
6:15 PM 50.0 °F - 23.0 °F 35% 30.02 in 10.0 mi East 10.4 mph - N/A   Clear
6:35 PM 48.2 °F - 23.0 °F 37% 30.02 in 10.0 mi East 10.4 mph - N/A   Clear
6:55 PM 48.2 °F - 23.0 °F 37% 30.02 in 10.0 mi East 9.2 mph - N/A   Clear
7:15 PM 46.4 °F 41.9 °F 23.0 °F 40% 30.02 in 10.0 mi East 9.2 mph - N/A   Clear
7:55 PM 46.4 °F 41.1 °F 23.0 °F 40% 30.01 in 10.0 mi East 11.5 mph - N/A   Clear
8:15 PM 46.4 °F 40.7 °F 23.0 °F 40% 30.00 in 10.0 mi East 12.7 mph - N/A   Clear
8:35 PM 46.4 °F 40.1 °F 23.0 °F 40% 30.00 in 10.0 mi ESE 15.0 mph 20.7 mph N/A   Clear
8:55 PM 46.4 °F 39.8 °F 23.0 °F 40% 30.00 in 10.0 mi East 16.1 mph - N/A   Clear
9:15 PM 46.4 °F 39.8 °F 23.0 °F 40% 29.99 in 10.0 mi East 16.1 mph - N/A   Clear
9:35 PM 46.4 °F 40.1 °F 23.0 °F 40% 29.99 in 10.0 mi East 15.0 mph - N/A   Clear
9:55 PM 44.6 °F 38.4 °F 23.0 °F 43% 29.98 in 10.0 mi East 12.7 mph 17.3 mph N/A   Clear
10:15 PM 44.6 °F 39.2 °F 23.0 °F 43% 29.98 in 10.0 mi East 10.4 mph - N/A   Clear
10:35 PM 44.6 °F 39.7 °F 23.0 °F 43% 29.97 in 10.0 mi East 9.2 mph - N/A   Clear
10:55 PM 41.0 °F 39.0 °F 23.0 °F 49% 29.96 in 10.0 mi East 3.5 mph - N/A   Clear
11:15 PM 41.0 °F 35.8 °F 23.0 °F 49% 29.96 in 10.0 mi East 8.1 mph - N/A   Clear
11:35 PM 41.0 °F 34.7 °F 23.0 °F 49% 29.95 in 10.0 mi ESE 10.4 mph - N/A   Clear
11:55 PM 42.8 °F 37.5 °F 23.0 °F 46% 29.94 in 10.0 mi ESE 9.2 mph - N/A   Clear